Back to catalog

SL-8 DEB

AliveLEO
NORAD 21181·DEBRIS·🇷🇺 Russia

Launched Feb 12, 1991 from Plesetsk Cosmodrome

Loading…

Next Passes (next 24 hours)

TLE

FreshSource: Space-Track

Epoch: Sep 14, 2026, 11:12 UTC

1 21181U 91009AU  26257.46666684  .00000016  00000-0  27496-3 0  9998
2 21181  73.9448 271.4275 0204762 191.8241 322.4039 12.22671015585036

Track SL-8 DEB in real time with AllMySat

Download on the App Store